Location: Temiskaming Shores
(47.4794°N, 79.7121°W)
Time: 19:00:48
(UTC-05:00)

ISS - Visible Passes

Search period start: 18 November 2019 00:00
Search period end: 28 November 2019 00:00
Orbit: 412 x 421 km, 51.6° (Epoch: 19 November)

Date Brightness Start Highest point End Pass type
(mag) Time Alt. Az. Time Alt. Az. Time Alt. Az.
21 Nov -0.6 19:27:37 10° SW 19:27:48 11° SW 19:27:48 11° SW visible
22 Nov -2.3 18:39:32 10° SSW 18:41:38 27° S 18:41:38 27° S visible
23 Nov -2.1 17:51:40 10° SSW 17:54:19 22° SE 17:55:23 19° ESE visible
23 Nov -0.9 19:27:24 10° WSW 19:28:18 17° WSW 19:28:18 17° WSW visible
24 Nov -1.5 17:04:17 10° SSE 17:06:06 14° SE 17:07:54 10° ESE visible
24 Nov -3.5 18:39:00 10° WSW 18:41:58 63° SSW 18:41:58 63° SSW visible
25 Nov -3.3 17:50:43 10° SW 17:53:57 48° SSE 17:55:33 25° E visible
25 Nov -0.9 19:27:28 10° W 19:28:28 18° W 19:28:28 18° W visible
26 Nov -2.6 17:02:38 10° SSW 17:05:37 31° SE 17:08:38 10° E visible
26 Nov -3.4 18:38:54 10° W 18:42:00 59° NW 18:42:00 59° NW visible
27 Nov -3.8 17:50:23 10° WSW 17:53:44 82° NNW 17:55:30 26° ENE visible
27 Nov -0.8 19:27:34 10° WNW 19:28:24 16° WNW 19:28:24 16° WNW visible
